Aérodrome :
LOGIN :

S'inscrire | Disclaimer

   EN    FR    IT 

 










Légende :    VFR   VFR Marginal   IFR   IFR Intensif   IFR Très Intensif
Visi : 
Plafond : 
>= 8 km
>= 3000ft
5 à 8 km
1000 à 3000 ft
1500m à 5 km
500 à 1000 ft
800 à 1500m
200 à 500 ft
< 800m
< 200 ft
Symboles :   Orages  Brouillard  Fortes neiges  Fortes précipitations  Vent > 20 kt
SIGMETs :   Divers  Orages  Givrage  Turbulence  Onde Orograph.  Cendres Volcan.







- Altitude de l'aérodrome : 1302 ft
- Code IATA : GNB
- Voir les cartes d'approche


LFLS - Grenoble / St. Geoirs

DERNIER METAR :
  • 242030Z AUTO VRB03KT 9999 OVC050 19/07 Q1019

METARs EXPIRÉS :
  • 242000Z AUTO 26003KT 190V340 9999 2100 OVC050 19/08 Q1019
  • 241930Z AUTO 33004KT 270V030 9999 OVC050 19/08 Q1018
  • 241900Z AUTO 32005KT 290V350 9999 BKN054 20/09 Q1018 NOSIG
  • 241830Z AUTO 32008KT 9999 BKN054 20/09 Q1018 NOSIG
  • 241800Z AUTO 33008KT 290V360 9999 FEW050 21/10 Q1018 NOSIG

TAF TAF LFLS
Valide du 24 à 15h jusqu'au 25 à 15h UTC


241400Z 2415/2515 35009KT CAVOK
ATIS : +33 4 76 65 55 89
Pas de NOTAMs connus pour ce terrain.



MET'MAP, la Météo Aéronautique d'un coup d'oeil ! - Copyright ORBIFLY Décembre 2007 - Disclaimer

ORBIFLY MET'MAP TEAM :

Programmation & Développement : Alexandra Zaïnal
Conception & Développement : Baudouin d'Aumeries
Co-Programmation & Développement : Marc-Olivier Méhu
Soutien technique & logistique : Manuel Goepfert

Contact : metmap@orbifly.com




SOURCES & CREDITS :

   NOAA